THOR ABLESTAR DEB, 552

Orbit data source: Space-Track

THOR ABLESTAR DEB, 552 is space debris in LEO originally from a launch on Thu, 29 Jun 1961 UTC launched from the Air Force Eastern Test Range (AFETR). Debris objects in space refer to the collection of defunct objects orbiting the Earth. Examples of debris include non-operational satellites, rocket bodies, and fragments generated from explosions, collisions, or faulty payload assembly.

Loading next visibility...
Identifier
552, 1961-015GM
Orbit
LEO
Country
Flag of USUS
Related business
Manufacturer
Unknown
Mission
Spacecraft
Bus & Motor
Unknown
Mass
Unknown
Launch date (UTC)
1961-06-29 (64 years ago)
Launch vehicle
Unknown
Launch site
Air Force Eastern Test Range (AFETR)
Object type
Payload
Rocket body
Debris
Shape & HBR
Unknown shape, 0.1 m
Radar Cross Section
Small (<0.1 m²)

Expand to show TLE details & history
Last TLE update: 1 day ago

TLE from 1 day ago
0 THOR ABLESTAR DEB
1 00552U 61015GM  25305.17683998  .00001929  00000-0  13255-2 0  9990
2 00552  67.7364 234.4197 0102701 200.2330 159.4678 13.98821119224807
Epoch: 2025-11-01T04:14Z
TLE epoch observation values (Epoch: 2025-11-01T04:14:38.974Z)
Latitude
-0.00001°
Longitude
130.04663°
Altitude
970.115 km
Speed
7.331 km/s
True Right ascension
15h 37m 40s
True Declination
0° 00' 00"
Sunlit
Object was in daylight at epoch
Visualization orbit readout
Latitude
Unknown
Longitude
Unknown
Altitude
Unknown
Speed
Unknown
Apparent Right ascension
Unknown
Apparent Declination
Unknown
Sunlit
N/A
Visualization observer readout
Local Sidereal Time
08:22:33
Azimuth
Unknown
Elevation
Unknown
Doppler factor
Unknown
Orbital elements
Apogee altitude
970.869 km
Perigee altitude
821.454 km
Semi-major axis
7,274.299 km
Eccentricity
0.01027
Inclination
67.7364°
RAAN
234.4197°
Arg. of periapsis
200.233°
True anomaly
159.87566°
Mean anomaly
159.4678°
Eccentric anomaly
159.67222°
Mean motion
3.4983 °/min
Orbital period
102.91 mins
BSTAR
0.0013255

Documentation

Showing up to 5 results
|